STARLINK-5112 (53987 NORAD) Tracking and Keplerian Element Data

This shows tracking and keplerian element data for the satellite.

Feedback or suggestion? Click here.




ElementValue
Catalog53987
NameSTARLINK-5112
Epoch Orbit765
Epoch Day325.25001157
Epoch Year2022
RAAN223.9088
Inclination53.2161
Eccentricity0.0001095
Argument of Perigee83.0043
Mean Anonmoly236.7461
Mean Motion15.4993629
Decay Rate-0.00082933
L11 53987U 22125Z 22325.25001157 -.00082933 00000+0 -14661-2 0 9995
L22 53987 53.2161 223.9088 0001095 83.0043 236.7461 15.49936290 7652



Live tracking and technical data element details for STARLINK-5112 (NORAD 53987). STARLINK-5112 can be tracked NOW for your location showing map with azimuth and elevation plus other details from your city location.







IsCatalogInMostPopularTable: catalog: 53987, numindb: 3
Update: records affected: 1



GetName: 53987 STARLINK-5112

Hit Count: updated at: Fri, 09 Dec 2022 19:28:29 GMT